Погода Ровно

Погода Ровно : погода сейчас, прогноз погоды и архив. Всё, что Вы хотите узнать о погоде Ровно!

Поиск расширенной информации на нашем сайте:

Другие новости

Новости СМИ2

Главная страница сайта

Новости сайта

03.07.2017

Напоминаем, что на нашем специализированном сайте Метеоцентр.Азия вы можете получить высокодетализированные автоматические прогнозы погоды по пунктам России, СНГ и мира в авиационном формате (включающие направление и скорость ветра, видимость, явления погоды, количество и форму облачности, нижнюю и верхнюю границу облачности).


Погода Ровно - сегодня

Время (UTC), дата Ветер
(°,м/с) 
Видим.   Явления Облачность Т
(°С)
Тd
(°С)
f(%) Тe
(°С)
Pmin
(гПа)
dP
(гПа)
Po
(мм)
O2
(г/м3)
Тmin Tmax R s Состояние
почвы
12 11.12.17 180 (Ю) 10 км    8/4 600 м средняя 
[Sc|Ac trans]
+2.5 -2 72 1003  -1.1  731  292           
15 11.12.17 170 (Ю) 10 км    9/4 600 м средняя 
[Sc|Ac trans]
+2.2 -1.1 79 1004.5  1.4  732  293           
18 11.12.17 180 (Ю) 10 км    10/0 средняя 
[Ac und]
+3.5 +0.1 78 +1  1004.5  0.2  732  291    +3.6       
21 11.12.17 140 (ЮВ) 10 км    10/0 средняя 
[Ac und]
+3.8 +0.4 78 +2  1004.2  -0.3  732  291           
00 12.12.17 190 (Ю) 10 км    10/0 средняя 
[Ac und]
+5.8 +1.6 74 +3  1003.4  -0.6  732  288           
03 12.12.17 200 (Ю) 10 км    9/0 средняя 
[Ac und]
+5.8 +2.2 78 +4  1002.6  -0.7  731  288           
06 12.12.17 210 (ЮЗ) 10 км    9/4 600 м средняя 
[Sc|Ac trans]
+7.3 +2.3 71 +5  1002.5  731  287  +3.3         
09 12.12.17 230 (ЮЗ) 20000 м    9/3 600 м средняя, верхняя 
[Sc|Ac trans|Ci fib]
+10.5 +4.1 65 +9  1003.7  1.5  732  283           
12 12.12.17 250 (З) 10  20000 м    9/3 600 м средняя 
[Sc|Ac trans]
+11.5 +5 64 +9  1003.5  -0.1  732  282           
15 12.12.17 180 (Ю) 10 км    10/4 600 м средняя 
[Sc|Ac und]
+9.2 +5 75 +9  1007.6  3.8  735  286           
18 12.12.17 220 (ЮЗ) 10 км    8/3 600 м средняя 
[Sc|Ac trans]
+10.3 +5.3 71 +9  1009.5  1.9  736  285    +12.5       
21 12.12.17 240 (ЮЗ) 10 км    10/3 600 м средняя 
[Sc|Ac und]
+7.7 +5 83 +8  1011.6  1.8  738  288           
00 13.12.17 280 (З) 10 км    10/0 средняя 
[Ac und]
+7.7 +4 77 +6  1012.8  1.2  739  289           
03 13.12.17 300 (СЗ) 10 км    10/0 средняя 
[Ac und]
+3.8 +0.4 78 +1  1014.8  1.5  740  294           
06 13.12.17 260 (З) 4000 м  слаб. ливневой снег  10/10 120 м кучево-дожд. 
[Cb calv]
+0.1 -0.2 98 -1  1017.2  741  299  -0.1       
09 13.12.17 260 (З) 2000 м  слаб. ливневой снег  10/10 100 м кучево-дожд. 
[Cb calv]
+0.1 -0.2 98 -2  1018.5  1.2  742  299           
12 13.12.17 270 (З) 10 км  {ливн. осадки}  10/10 120 м кучево-дожд. 
[Cb calv]
+1 +0.7 98 -1  1017.3  741  298         
15 13.12.17 240 (ЮЗ) 10 км    9/5 600 м средняя 
[Sc|Ac trans]
-0.1 -0.4 98 -1  1016.8  -0.6  741  299           
18 13.12.17 250 (З) 4000 м  дымка  10/10 180 м 
[St]
+0.1 -0.2 98 -1  1016  -0.8  740  298    +1.2     
21 13.12.17 тихо ()   10 км    10/10 150 м 
[St]
-0.3 -0.6 98 -0  1014.3  -1.7  739  298           
00 14.12.17 140 (ЮВ) 10 км    10/10 870 м 
[Sc]
-0.2 -0.8 96 1011.9  -2.3  737  297           
03 14.12.17 160 (Ю) 10 км    10/10 240 м 
[Sc]
+0 -0.6 96 -2  1009.5  -2.3  736  296           
06 14.12.17 190 (Ю) 10 км    10/10 150 м 
[St]
-0.3 -0.6 98 -3  1007.5  -2  734  296  -0.5      мокрый или
старый снег
50-90% 
09 14.12.17 180 (Ю) 20000 м    9/9 210 м 
[Sc]
+0.3 -0.5 94 -4  1005.3  -2.1  733  295           
12 14.12.17 170 (Ю) 20000 м    9/4 300 м средняя 
[St|Ac und]
+1.3 -0.1 90 -2  1003.2  -1.9  731  293           
Время (UTC), дата Ветер
(°,м/с) 
Видим.   Явления Облачность Т
(°С)
Тd
(°С)
f(%) Тe
(°С)
Pmin
(гПа)
dP
(гПа)
Po
(мм)
O2
(г/м3)
Тmin Tmax R s Состояние
почвы

Для получения пояснительной информации подведите курсор к названию столбца.

ПОГОДА Ровно - архив

Всё, что Вы хотите узнать о погоде Ровно - удобно и подробно!

Выберите нужную дату (начиная с 1 января 2015* года) и нажмите кнопку "Найти".
Будут отображены архивные сводки погоды по пункту Ровно, начиная с указанной даты.


Отображать данные в формате CSV (для использования в таблицах Excel)


Внимание! Наш архив погоды предназначен исключительно для личного некоммерческого использования в познавательных целях. Если Вам необходимы официальные справки о состоянии погоды (для производственных, юридических, коммерческих и т.п. целей), обращайтесь в органы Росгидромета.

*Примечание: данная дата относится к архиву по метеостанциям СССР (Россия, СНГ, Балтия).
Архив по метеостанциям Зарубежной Европы и Азии (кроме Китая) хранится 10 дней, по другим регионам земного шара (Китай, Африка, Америка, Австралия, Океания) - 1 день.

Ровно - район местоположения метеостанции


Название, широта, долгота, высота метеостанции:
Ровно 50.6°ш. 26.1°д. 231 м над ур. моря [Украина]

Дополнительная информация

В oтличие oт бoльшинства пoгoдных сайтoв мы публикуем пoдрoбную метеoинфoрмацию в детальнoм прoфессиoнальнoм фoрмате.

Характеристики температуры и влажнoсти вoздуха измеряются на высoте 2 м в тени вдали oт зданий и деревьев.
Скoрoсть ветра измеряется на высoте 10 м (на урoвне рoста челoвека скoрoсть ветра ниже в 1.5-2 раза). Если метеoстанция нахoдится в гoрoде или в лесу, тo скoрoсть ветра занижена на 2-4 м/с пo сравнению с oткрытым местoм. Скoрoсть ветра над акватoриями крупных рек и oзёр, а также на вершинах хoлмoв на 2-5 м/с выше, чем в oбычных услoвиях.
Атмoсфернoе давление в разных тoчках местнoсти мoжет значительнo oтличаться oт давления на метеoстанции, в зависимoсти oт услoвий рельефа (при пoдъёме на 10 м давление пoнижается примернo на 1 мм рт.ст.).